This demonstration page uses our WeatherBlox Daily Observations layout. Learn more.

Left ArrowRight Arrow

Hourly Observations for May 19, 2015

Temp ( °F °C ) Dew Point ( °F °C ) Humidity (%) Winds ( mph kmh ) Pressure ( in mb ) Visibility ( mi km ) Precip ( " mm )
12:03 am 00:03 Clear with Mist and Fog 64 17.8 63 17.2 96 96 Calm 30.06 1018 3 4 0.00 0.00
12:12 am 00:12 Clear with Mist and Fog 64 17.8 63 17.2 96 96 Calm 30.06 1018 3 5 0.00 0.00
12:19 am 00:19 Clear with Mist and Fog 64 17.8 63 17.2 96 96 Calm 30.06 1018 3 4 0.00 0.00
12:35 am 00:35 Clear with Mist and Fog 64 17.8 63 17.2 96 96 Calm 30.06 1018 3 5 0.00 0.00
12:53 am 00:53 Clear with Mist and Fog 63 17.2 63 17.2 100 100 Calm 30.07 1018 4 6 0.00 0.00
1:11 am 01:11 Clear with Mist and Fog 64 17.8 63 17.2 96 96 Calm 30.06 1018 2 3 0.00 0.00
1:21 am 01:21 Clear with Mist and Fog 62 16.7 61 16.1 96 96 Calm 30.06 1018 2 2 0.00 0.00
1:32 am 01:32 Clear with Mist and Fog 63 17.2 62 16.7 97 97 Calm 30.06 1018 2 3 0.00 0.00
1:38 am 01:38 Mostly Cloudy with Mist and Fog 63 17.2 63 17.2 100 100 Calm 30.06 1018 1 2 0.00 0.00
1:45 am 01:45 Mostly Cloudy with Fog 63 17.2 62 16.7 97 97 Calm 30.06 1018 0 0 0.00 0.00
1:53 am 01:53 Mostly Cloudy with Fog 64 17.8 63 17.2 96 96 W 3 6 30.06 1018 1 1 0.00 0.00
1:59 am 01:59 Mostly Clear with Mist and Fog 66 18.9 65 18.3 96 96 W 6 9 30.06 1018 1 2 0.00 0.00
2:06 am 02:06 Mostly Clear with Mist and Fog 66 18.9 66 18.9 100 100 W 6 9 30.06 1018 3 5 0.00 0.00
2:53 am 02:53 Clear 66 18.9 65 18.3 96 96 W 6 9 30.06 1018 9 14 0.00 0.00
3:53 am 03:53 Clear 63 17.2 56 13.3 78 78 WNW 7 11 30.07 1018 10 16 0.00 0.00
4:53 am 04:53 Clear 59 15 53 11.7 81 81 NW 6 9 30.08 1019 10 16 0.00 0.00
5:53 am 05:53 Clear 57 13.9 47 8.3 69 69 NW 7 11 30.10 1019 10 16 0.00 0.00
6:53 am 06:53 Sunny 55 12.8 47 8.3 74 74 WNW 6 9 30.11 1020 10 16 0.00 0.00
7:53 am 07:53 Sunny 57 13.9 47 8.3 69 69 WNW 10 17 30.12 1020 10 16 0.00 0.00
8:53 am 08:53 Sunny 58 14.4 46 7.8 65 65 NW 8 13 30.14 1021 10 16 0.00 0.00
9:53 am 09:53 Sunny 60 15.6 47 8.3 62 62 NW 12 19 30.15 1021 10 16 0.00 0.00
10:53 am 10:53 Sunny 62 16.7 47 8.3 58 58 WNW 8 13 30.15 1021 10 16 0.00 0.00
11:53 am 11:53 Sunny 64 17.8 48 8.9 56 56 VRB 6 9 30.15 1021 10 16 0.00 0.00
12:53 pm 12:53 Sunny 65 18.3 48 8.9 54 54 VRB 6 9 30.15 1021 10 16 0.00 0.00
1:53 pm 13:53 Sunny 67 19.4 49 9.4 53 53 WNW 10 17 30.15 1021 10 16 0.00 0.00
2:53 pm 14:53 Sunny 68 20 48 8.9 49 49 WSW 8 13 30.13 1020 10 16 0.00 0.00
3:53 pm 15:53 Sunny 69 20.6 49 9.4 49 49 WNW 9 15 30.12 1020 10 16 0.00 0.00
4:53 pm 16:53 Sunny 68 20 47 8.3 47 47 WNW 13 20 30.12 1020 10 16 0.00 0.00
5:53 pm 17:53 Sunny 67 19.4 47 8.3 49 49 NW 13 20 30.12 1020 10 16 0.00 0.00
6:53 pm 18:53 Sunny 66 18.9 45 7.2 47 47 W 8 13 30.12 1020 10 16 0.00 0.00
7:53 pm 19:53 Sunny 63 17.2 46 7.8 54 54 NNW 10 17 30.13 1020 10 16 0.00 0.00
8:53 pm 20:53 Clear 59 15 46 7.8 62 62 N 7 11 30.14 1021 10 16 0.00 0.00
9:53 pm 21:53 Clear 57 13.9 45 7.2 64 64 N 8 13 30.14 1021 10 16 0.00 0.00
10:53 pm 22:53 Clear 54 12.2 44 6.7 69 69 N 8 13 30.16 1021 10 16 0.00 0.00
11:53 pm 23:53 Clear 51 10.6 43 6.1 74 74 NNE 6 9 30.16 1021 10 16 0.00 0.00

Powered by AerisWeather